Regional Weather Roundup
Issued by NWS Mt. Holly, NJ

Home | Current Version | Previous Version | Text Only | Print | Product List | Glossary On
Versions: 1 2 3 4 5 6 7 8 9 10 11 12 13 14 15 16 17 18 19 20 21 22 23 24 25 26 27 28 29 30 31 32 33 34 35 36 37 38 39 40 41 42 43 44 45 46 47 48 49 50
000
ASUS41 KPHI 040412
RWRPHI

REGIONAL WEATHER ROUNDUP
NATIONAL WEATHER SERVICE MOUNT HOLLY NJ
1200 AM EDT FRI SEP 04 2015

NOTE:  "FAIR" INDICATES FEW OR NO CLOUDS BELOW 12,000 FEET WITH NO
SIGNIFICANT WEATHER AND/OR OBSTRUCTIONS TO VISIBILITY.

 * = STATION DOES NOT REPORT PRECIPITATION (E.G. RAIN, SNOW, ETC.)
        OR FOG.

NJZ015>026-040500-
SOUTHERN NEW JERSEY

CITY           SKY/WX    TMP DP  RH WIND       PRES   REMARKS
POMONA         PTCLDY    70  67  90 CALM      29.89S FOG
WILDWOOD*      PTCLDY    73  72  94 CALM      29.90R
MILLVILLE      PTCLDY    71  69  93 CALM      29.89R FOG
WRIGHTSTOWN    CLEAR     71  69  93 CALM      29.87S
MOUNT HOLLY    PTCLDY    72  68  87 CALM      29.90R FOG
TRENTON        PTCLDY    78  67  68 CALM      29.89S

$$
NJZ001>014-040500-
NORTHERN NEW JERSEY

CITY           SKY/WX    TMP DP  RH WIND       PRES   REMARKS
SUSSEX         MOCLDY    70  65  84 CALM      29.93S
ANDOVER*         N/A     72  69  90 CALM      29.93S
MORRISTOWN     PTCLDY    70  64  83 CALM      29.91R
NEWARK         MOCLDY    83  66  56 W6        29.89R
TETERBORO      PTCLDY    81  63  54 N5        29.89R
CALDWELL       PTCLDY    79  67  66 NE5       29.91R
SOMERVILLE     PTCLDY    75  67  76 CALM      29.88S
ALLAIRE*       PTCLDY    75  64  69 CALM      29.90S
TOMS RIVER*    PTCLDY    70  64  83 CALM      29.90S

$$
PAZ043-044-047-054-055-060>062-066>071-040500-
EASTERN PENNSYLVANIA

CITY           SKY/WX    TMP DP  RH WIND       PRES   REMARKS
PHILADELPHIA   MOCLDY    80  69  69 SE3       29.90S
NORTH PHILA    PTCLDY    81  66  60 CALM      29.90S
BLUE BELL      PTCLDY    75  72  88 CALM      29.89F
DOYLESTOWN     PTCLDY    74  67  78 CALM      29.90S
QUAKERTOWN*    PTCLDY    73  66  78 CALM      29.92S
POTTSTOWN      PTCLDY    72  70  93 CALM      29.92S
LANCASTER      MOCLDY    74  66  76 N3        29.91S
COATESVILLE    PTCLDY    75  68  78 CALM      29.93R
READING        PTCLDY    75  67  76 CALM      29.90S
ALLENTOWN      CLEAR     71  66  84 N5        29.91F
MOUNT POCONO   PTCLDY    71  65  81 NE6       30.00R
HAZLETON       FOG       64  64 100 CALM      30.02R VSB 1/4
WILKES BARRE   PTCLDY    71  66  84 E5        29.95S

$$
DEZALL-MDZ008-012-015-019-020-040500-
DELAWARE AND EASTERN MARYLAND

CITY           SKY/WX    TMP DP  RH WIND       PRES   REMARKS
WILMINGTON     PTCLDY    79  70  74 E6        29.90R
DOVER          CLEAR     75  75 100 N2        29.87R
GEORGETOWN     CLEAR     76  69  79 W3        29.89R
PATUXENT       MOCLDY    75  70  84 NW3       29.88F
OCEAN CITY     CLEAR     76  70  82 W5        29.88R
WALLOPS ISLAND CLEAR     75  73  93 W3        29.88F
SALISBURY      CLEAR     74  71  91 CALM      29.88S

$$
PAZ001-021-NYZ056-072-MDZ011-DCZ001-040500-
OTHER NEARBY LOCATIONS

CITY           SKY/WX    TMP DP  RH WIND       PRES   REMARKS
HARRISBURG     MOCLDY    76  68  76 CALM      29.91R
STATE COLLEGE  PTCLDY    69  65  89 CALM      29.99R
WILLIAMSPORT   MOCLDY    70  67  90 CALM      29.94R
BINGHAMTON     CLEAR     70  68  93 N6        30.00R
NEW YORK CITY  PTCLDY    82  65  56 CALM      29.92S
BALTIMORE      MOCLDY    75  69  81 CALM      29.89S
WASHINGTON DC  CLOUDY    79  69  71 N6        29.90S

$$



USA.gov is the U.S. government's official web portal to all federal, state and local government web resources and services.